TimeEDT,TemperatureF,Dew PointF,Humidity,Sea Level PressureIn,VisibilityMPH,Wind Direction,Wind SpeedMPH,Gust SpeedMPH,PrecipitationIn,Events,Conditions,WindDirDegrees,DateUTC
12:52 AM,75.9,69.1,79,30.01,10.0,Calm,Calm,-,N/A,,Clear,0,2012-10-06 04:52:00
1:52 AM,75.0,69.1,82,29.99,10.0,Calm,Calm,-,N/A,,Clear,0,2012-10-06 05:52:00
2:52 AM,75.0,70.0,84,29.99,10.0,Calm,Calm,-,N/A,,Clear,0,2012-10-06 06:52:00
3:52 AM,75.0,69.1,82,29.96,10.0,Calm,Calm,-,N/A,,Clear,0,2012-10-06 07:52:00
4:52 AM,75.9,71.1,85,29.96,10.0,NW,3.5,-,N/A,,Clear,310,2012-10-06 08:52:00
5:26 AM,75.2,71.6,89,29.97,10.0,NW,3.5,-,N/A,Thunderstorm,Thunderstorm,320,2012-10-06 09:26:00
5:41 AM,75.2,71.6,89,29.96,10.0,Calm,Calm,-,N/A,,Clear,0,2012-10-06 09:41:00
5:52 AM,75.0,71.1,87,29.97,10.0,NW,3.5,-,N/A,,Clear,320,2012-10-06 09:52:00
6:52 AM,75.0,71.1,87,29.98,10.0,Calm,Calm,-,N/A,,Clear,0,2012-10-06 10:52:00
7:52 AM,75.0,71.1,87,29.98,10.0,NW,3.5,-,N/A,,Clear,310,2012-10-06 11:52:00
8:52 AM,79.0,73.0,82,29.98,10.0,North,3.5,-,N/A,,Clear,360,2012-10-06 12:52:00
9:52 AM,82.9,72.0,69,29.99,10.0,NE,4.6,-,N/A,,Partly Cloudy,40,2012-10-06 13:52:00
10:07 AM,82.4,71.6,70,29.99,10.0,NE,6.9,-,N/A,,Mostly Cloudy,50,2012-10-06 14:07:00
10:52 AM,81.0,72.0,74,30.00,10.0,NNE,10.4,-,N/A,,Mostly Cloudy,30,2012-10-06 14:52:00
11:00 AM,80.6,71.6,74,30.00,10.0,NE,9.2,-,N/A,,Scattered Clouds,40,2012-10-06 15:00:00
11:38 AM,80.6,71.6,74,29.99,8.0,NE,10.4,-,0.01,Rain,Light Rain,50,2012-10-06 15:38:00
11:52 AM,81.0,73.0,77,29.99,10.0,NNE,11.5,-,0.01,,Mostly Cloudy,30,2012-10-06 15:52:00
11:58 AM,78.8,71.6,78,29.99,9.0,North,11.5,-,0.00,Rain,Light Rain,10,2012-10-06 15:58:00
12:08 PM,75.2,68.0,78,29.99,1.5,NNE,9.2,-,0.14,Rain,Heavy Rain,20,2012-10-06 16:08:00
12:15 PM,75.2,69.8,83,29.99,4.0,Calm,Calm,-,0.18,Rain,Light Rain,0,2012-10-06 16:15:00
12:47 PM,78.8,71.6,78,29.98,10.0,NE,8.1,-,0.18,Thunderstorm,Thunderstorm,50,2012-10-06 16:47:00
12:52 PM,79.0,71.1,77,29.97,10.0,NE,8.1,-,0.18,Thunderstorm,Thunderstorm,50,2012-10-06 16:52:00
1:24 PM,80.6,71.6,74,29.97,10.0,East,9.2,-,N/A,,Mostly Cloudy,80,2012-10-06 17:24:00
1:52 PM,80.1,72.0,76,29.95,10.0,ENE,8.1,-,N/A,,Mostly Cloudy,70,2012-10-06 17:52:00
2:52 PM,82.9,71.1,67,29.93,10.0,East,8.1,-,0.01,,Mostly Cloudy,80,2012-10-06 18:52:00
3:52 PM,82.9,69.1,63,29.92,10.0,East,8.1,-,N/A,,Mostly Cloudy,80,2012-10-06 19:52:00
4:52 PM,81.0,70.0,69,29.91,10.0,East,6.9,-,N/A,,Scattered Clouds,100,2012-10-06 20:52:00
5:52 PM,82.0,70.0,67,29.91,10.0,ESE,6.9,-,N/A,,Scattered Clouds,120,2012-10-06 21:52:00
6:52 PM,79.0,68.0,69,29.91,10.0,SE,5.8,-,N/A,,Scattered Clouds,130,2012-10-06 22:52:00
7:52 PM,79.0,69.1,72,29.93,10.0,SE,8.1,-,N/A,,Scattered Clouds,140,2012-10-06 23:52:00
8:52 PM,78.1,69.1,74,29.94,10.0,SE,6.9,-,N/A,,Scattered Clouds,140,2012-10-07 00:52:00
9:52 PM,79.0,69.1,72,29.96,10.0,SE,5.8,-,N/A,,Scattered Clouds,130,2012-10-07 01:52:00
10:52 PM,79.0,69.1,72,29.97,10.0,ESE,4.6,-,0.00,,Scattered Clouds,120,2012-10-07 02:52:00
11:52 PM,75.0,69.1,82,29.96,10.0,South,5.8,-,N/A,,Mostly Cloudy,190,2012-10-07 03:52:00
11:59 PM,77.0,69.8,78,29.96,10.0,South,6.9,-,0.00,Rain,Light Rain,190,2012-10-07 03:59:00